Location: Spaichingen
(48.0400°N, 8.4300°E)
Time: 13:26:03
(UTC+02:00)

Tiangong 2 - Pass Details

Date: 21 May 2019
Orbit: 376 x 388 km, 42.8° (Epoch: 16 June)

Event Time Altitude Azimuth Distance (km) Brightness Sun altitude
Rises 21:57:12 0° 228° (SW) 2,229 5.0 -7.7°
Reaches altitude 10° 21:59:37 10° 210° (SSW) 1,379 3.7 -8.0°
Maximum altitude 22:01:55 19° 162° (SSE) 965 2.6 -8.3°
Enters shadow 22:03:58 11° 117° (ESE) 1,300 3.1 -8.5°
